Location: C.E.K. Mees Observatory
(42.7003°N, 77.4088°W)
Time: 10:07:32
(UTC-05:00)

Tiangong 2 - Pass Details

Date: 12 October 2017
Orbit: 386 x 390 km, 42.8° (Epoch: 10 December)

Event Time Altitude Azimuth Distance (km) Brightness Sun altitude
Exits shadow 05:18:37 38° 111° (ESE) 617 2.5 -22.9°
Drops below altitude 10° 05:20:53 10° 85° (E) 1,422 5.1 -22.5°
Sets 05:23:00 0° 80° (E) 2,281 6.5 -22.1°
